[ hide orbit diagram ]
For accurate long-term ephemerides, please instead use our Horizons system.This orbit viewer was implemented using two-body methods, and hence should not be used for determining accurate long-term trajectories (over several years or decades) or planetary encounter circumstances.
Orbital Elements at Epoch 2459000.5 (2020-May-31.0) TDB
Reference: JPL 12 (heliocentric ecliptic J2000)
Element | Value | Uncertainty (1-sigma) | Units |
e | .1147663412345781 | 5.2737e-08 | |
a | 2.322177212584421 | 1.865e-08 | au |
q | 2.055669430197796 | 1.2694e-07 | au |
i | 2.469504688555033 | 9.5422e-06 | deg |
node | 63.99359638815717 | 0.00013761 | deg |
peri | 269.8543803401568 | 0.00014398 | deg |
M | 262.2843931695074 | 4.4579e-05 | deg |
tp | 2459351.334987983722 (2021-May-16.83498798) | 0.00016136 | TDB |
period | 1292.532480438194 3.54 | 1.5571e-05 4.263e-08 | d yr |
n | .2785229813938238 | 3.3554e-09 | deg/d |
Q | 2.588684994971046 | 2.0791e-08 | au |
|
| | Orbit Determination Parameters
Additional Information
|
[ show covariance matrix ]
Physical Parameter Table
Parameter |
Symbol |
Value |
Units |
Sigma |
Reference |
Notes |
absolute magnitude |
H |
18.1 |
|
n/a |
MPO413456 |
|
|
413808 (2006 KX30) Discovered 2006-May-20 by Spacewatch at Kitt Peak |
Reference: | Last Updated: 2014-11-10 |
|
|